KM8V-8 Weather Reports


time (UTC)temp
C
wind
direction
speed
KPH
gust
KPH
rain 1hr
cm
rain 24hr
cm
rain mn
cm
humidity
%
barometer
mb
20260508075019 8 196 1.6 6.4 0.00 0.00 0.00 76 1011.7
20260508074519 8 197 1.6 4.8 0.00 0.00 0.00 75 1011.7
20260508074016 8 192 4.8 8.0 0.00 0.00 0.00 75 1011.7
20260508073520 8 193 3.2 4.8 0.00 0.00 0.00 75 1011.7
20260508073019 8 198 3.2 8.0 0.00 0.00 0.00 74 1011.7
20260508072516 8 193 4.8 12.9 0.00 0.00 0.00 73 1011.7
20260508072017 8 195 4.8 14.5 0.00 0.00 0.00 73 1011.7
20260508071517 8 208 4.8 11.3 0.00 0.00 0.00 72 1011.8
20260508071017 8 199 4.8 12.9 0.00 0.00 0.00 71 1011.8
20260508070517 8 202 4.8 8.0 0.00 0.00 0.00 71 1011.8
20260508070018 8 188 4.8 14.5 0.00 0.00 0.00 71 1011.8
20260508065517 8 199 4.8 11.3 0.00 0.00 0.00 72 1011.7
20260508065020 8 189 3.2 6.4 0.00 0.00 0.00 72 1011.7
20260508064520 8 189 3.2 6.4 0.00 0.00 0.00 72 1011.8
20260508064021 8 201 3.2 6.4 0.00 0.00 0.00 73 1011.8
20260508063520 8 186 1.6 6.4 0.00 0.00 0.00 74 1011.8
20260508063022 8 191 1.6 4.8 0.00 0.00 0.00 73 1011.8
20260508062521 8 195 0.0 3.2 0.00 0.00 0.00 73 1011.8
20260508062020 8 183 1.6 4.8 0.00 0.00 0.00 73 1011.8
20260508061521 8 200 1.6 3.2 0.00 0.00 0.00 72 1011.8
20260508061021 8 0.0 0.0 0.00 0.00 0.00 72 1011.8
20260508060521 8 191 1.6 6.4 0.00 0.00 0.00 72 1011.8
20260508060022 8 194 0.0 3.2 0.00 0.00 0.00 72 1011.9
20260508055521 8 206 0.0 1.6 0.00 0.00 0.00 72 1011.9
20260508055021 8 203 0.0 3.2 0.00 0.00 0.00 72 1011.9
20260508054521 8 0.0 0.0 0.00 0.00 0.00 72 1012.0
20260508054021 8 204 0.0 3.2 0.00 0.00 0.00 71 1012.0
20260508053521 8 276 0.0 1.6 0.00 0.00 0.00 71 1012.1
20260508053021 8 0.0 0.0 0.00 0.00 0.00 70 1012.2
20260508052522 8 200 1.6 3.2 0.00 0.00 0.00 70 1012.2
20260508052021 8 178 1.6 3.2 0.00 0.00 0.00 70 1012.3
20260508051522 8 204 0.0 3.2 0.00 0.00 0.00 70 1012.3
20260508051022 8 287 0.0 3.2 0.00 0.00 0.00 69 1012.3
20260508050522 8 208 1.6 3.2 0.00 0.00 0.00 69 1012.3
20260508050023 8 232 0.0 4.8 0.00 0.00 0.00 68 1012.3
20260508045522 8 184 1.6 4.8 0.00 0.00 0.00 68 1012.3
20260508045023 8 178 1.6 4.8 0.00 0.00 0.00 68 1012.3
20260508044523 9 195 1.6 3.2 0.00 0.00 0.00 67 1012.3
20260508044023 9 198 1.6 8.0 0.00 0.00 0.00 67 1012.3
20260508043522 9 210 1.6 4.8 0.00 0.00 0.00 67 1012.4
20260508043023 9 204 1.6 3.2 0.00 0.00 0.00 67 1012.3
20260508042522 9 234 1.6 3.2 0.00 0.00 0.00 67 1012.3
20260508042023 9 222 1.6 4.8 0.00 0.00 0.00 66 1012.3
20260508041523 8 199 1.6 4.8 0.00 0.00 0.00 66 1012.3
20260508041023 8 204 1.6 3.2 0.00 0.00 0.00 67 1012.3
20260508040523 8 191 1.6 4.8 0.00 0.00 0.00 66 1012.3
20260508040023 8 190 1.6 3.2 0.00 0.00 0.00 66 1012.3
20260508035524 8 197 1.6 3.2 0.00 0.00 0.00 66 1012.3
20260508035023 8 189 1.6 4.8 0.00 0.00 0.00 66 1012.3
20260508034523 8 194 3.2 6.4 0.00 0.00 0.00 66 1012.4
20260508034024 8 180 3.2 6.4 0.00 0.00 0.00 65 1012.4
20260508033523 8 188 1.6 4.8 0.00 0.00 0.00 65 1012.5
20260508033024 8 183 1.6 4.8 0.00 0.00 0.00 64 1012.5
20260508032524 8 199 1.6 4.8 0.00 0.00 0.00 64 1012.5
20260508032024 8 181 1.6 6.4 0.00 0.00 0.00 65 1012.5
20260508031524 7 190 1.6 4.8 0.00 0.00 0.00 65 1012.5
20260508031025 7 184 3.2 6.4 0.00 0.00 0.00 67 1012.5
20260508030525 7 184 1.6 4.8 0.00 0.00 0.00 68 1012.6
20260508030024 7 203 1.6 3.2 0.00 0.00 0.00 70 1012.6
20260508025525 6 0.0 0.0 0.00 0.00 0.00 70 1012.5
20260508025024 6 0.0 0.0 0.00 0.00 0.00 69 1012.5
20260508024525 6 0.0 0.0 0.00 0.00 0.00 70 1012.5
20260508024025 6 0.0 0.0 0.00 0.00 0.00 71 1012.5
20260508023525 6 0.0 0.0 0.00 0.00 0.00 71 1012.5
20260508023025 6 0.0 0.0 0.00 0.00 0.00 72 1012.4
20260508022526 6 0.0 0.0 0.00 0.00 0.00 71 1012.4
20260508022025 6 0.0 0.0 0.00 0.00 0.00 71 1012.3
20260508021526 6 0.0 0.0 0.00 0.00 0.00 71 1012.3
20260508021025 6 0.0 0.0 0.00 0.00 0.00 72 1012.3
20260508020526 6 0.0 0.0 0.00 0.00 0.00 71 1012.3
20260508020025 6 0.0 0.0 0.00 0.00 0.00 69 1012.2
20260508015526 6 0.0 0.0 0.00 0.00 0.00 69 1012.2
20260508015026 6 0.0 0.0 0.00 0.00 0.00 68 1012.2
20260508014526 6 0.0 0.0 0.00 0.00 0.00 67 1012.2
20260508014026 6 0.0 0.0 0.00 0.00 0.00 66 1012.2
20260508013526 7 0.0 0.0 0.00 0.00 0.00 65 1012.1
20260508013026 7 0.0 0.0 0.00 0.00 0.00 65 1012.0
20260508012526 7 0.0 0.0 0.00 0.00 0.00 65 1011.9
20260508012026 7 0.0 0.0 0.00 0.00 0.00 64 1011.9
20260508011526 8 0.0 0.0 0.00 0.00 0.00 63 1011.9
20260508011026 8 0.0 0.0 0.00 0.00 0.00 61 1011.8
20260508010527 8 0.0 0.0 0.00 0.00 0.00 60 1011.8
20260508010026 9 0.0 0.0 0.00 0.00 0.00 59 1011.8
20260508005527 9 0.0 0.0 0.00 0.00 0.00 58 1011.7
20260508005027 10 0.0 0.0 0.00 0.00 0.00 57 1011.7
20260508004527 10 0.0 0.0 0.00 0.00 0.00 55 1011.7
20260508004027 10 0.0 0.0 0.00 0.00 0.00 54 1011.7
20260508003528 11 0.0 0.0 0.00 0.00 0.00 53 1011.6
20260508003027 11 324 0.0 3.2 0.00 0.00 0.00 52 1011.6
20260508002528 11 328 0.0 3.2 0.00 0.00 0.00 50 1011.5
20260508002028 11 0.0 0.0 0.00 0.00 0.00 50 1011.5
20260508001527 12 315 1.6 4.8 0.00 0.00 0.00 49 1011.4
20260508001028 12 269 1.6 3.2 0.00 0.00 0.00 48 1011.4
20260508000528 12 311 3.2 6.4 0.00 0.00 0.00 47 1011.4
20260508000028 12 289 3.2 6.4 0.00 0.00 0.00 46 1011.3
20260507235528 12 227 3.2 6.4 0.00 0.00 0.00 46 1011.3
20260507235028 13 244 1.6 6.4 0.00 0.00 0.00 46 1011.3
20260507234528 13 221 1.6 3.2 0.00 0.00 0.00 46 1011.3
20260507234029 13 278 1.6 6.4 0.00 0.00 0.00 45 1011.3
20260507233528 13 297 1.6 6.4 0.00 0.00 0.00 45 1011.2
20260507233021 13 298 4.8 9.7 0.00 0.00 0.00 44 1011.2
20260507232520 13 224 4.8 9.7 0.00 0.00 0.00 43 1011.1
20260507232029 13 294 3.2 6.4 0.00 0.00 0.00 44 1011.2
20260507231520 13 313 4.8 12.9 0.00 0.00 0.00 44 1011.3
20260507231020 13 300 4.8 11.3 0.00 0.00 0.00 44 1011.3
20260507230520 13 295 3.2 9.7 0.00 0.00 0.00 44 1011.4
20260507230020 13 261 4.8 9.7 0.00 0.00 0.00 44 1011.4
20260507225520 13 275 4.8 12.9 0.00 0.00 0.00 44 1011.5
20260507225029 13 254 3.2 6.4 0.00 0.00 0.00 43 1011.5
20260507224520 13 252 4.8 8.0 0.00 0.00 0.00 43 1011.4
20260507224021 13 265 3.2 9.7 0.00 0.00 0.00 44 1011.4
20260507223521 13 269 3.2 11.3 0.00 0.00 0.00 43 1011.4
20260507223021 13 266 4.8 9.7 0.00 0.00 0.00 44 1011.4
20260507222520 13 220 4.8 12.9 0.00 0.00 0.00 44 1011.4
20260507222021 13 249 4.8 11.3 0.00 0.00 0.00 44 1011.4
20260507221521 13 261 4.8 11.3 0.00 0.00 0.00 44 1011.5
20260507221021 13 276 4.8 14.5 0.00 0.00 0.00 43 1011.4
20260507220521 13 268 3.2 11.3 0.00 0.00 0.00 44 1011.4
20260507220016 13 285 4.8 11.3 0.00 0.00 0.00 43 1011.4
20260507215518 13 291 6.4 19.3 0.00 0.00 0.00 43 1011.4
20260507215022 13 257 6.4 12.9 0.00 0.00 0.00 43 1011.4
20260507214521 13 263 6.4 14.5 0.00 0.00 0.00 43 1011.3
20260507214022 13 263 6.4 12.9 0.00 0.00 0.00 43 1011.2
20260507213522 13 284 4.8 14.5 0.00 0.00 0.00 46 1011.2
20260507213023 13 246 6.4 14.5 0.00 0.00 0.00 46 1011.2
20260507212522 13 229 6.4 14.5 0.00 0.00 0.00 46 1011.2
20260507212022 13 275 6.4 12.9 0.00 0.00 0.00 46 1011.2
20260507211519 13 302 6.4 16.1 0.00 0.00 0.00 48 1011.2
20260507211017 13 230 6.4 17.7 0.00 0.00 0.00 50 1011.1
20260507210516 13 278 4.8 9.7 0.00 0.00 0.00 51 1011.1
20260507210016 13 223 4.8 14.5 0.00 0.00 0.00 53 1011.0
20260507205516 13 279 4.8 12.9 0.00 0.00 0.00 53 1011.0
20260507205017 13 263 4.8 8.0 0.00 0.00 0.00 53 1011.0
20260507204516 13 245 4.8 14.5 0.00 0.00 0.00 54 1011.0
20260507204016 12 247 4.8 9.7 0.00 0.00 0.00 55 1011.1
20260507203522 12 312 4.8 12.9 0.00 0.00 0.00 57 1011.1
20260507203023 12 250 3.2 9.7 0.00 0.00 0.00 56 1011.1
20260507202532 12 320 3.2 8.0 0.00 0.00 0.00 55 1011.1
20260507202022 12 276 3.2 8.0 0.00 0.00 0.00 56 1011.2
20260507201523 12 294 3.2 9.7 0.00 0.00 0.00 57 1011.2
20260507201017 12 273 4.8 11.3 0.00 0.00 0.00 56 1011.1
20260507200517 12 306 3.2 9.7 0.00 0.00 0.00 56 1011.1
20260507200017 12 286 3.2 11.3 0.00 0.00 0.00 56 1011.0
20260507195517 12 298 4.8 12.9 0.00 0.00 0.00 55 1011.1
20260507195017 12 311 4.8 12.9 0.00 0.00 0.00 55 1011.1
20260507194517 12 308 4.8 9.7 0.00 0.00 0.00 57 1011.1
20260507194018 12 281 4.8 9.7 0.00 0.00 0.00 55 1011.1
20260507193518 13 295 4.8 11.3 0.00 0.00 0.00 55 1011.0
20260507193018 13 343 4.8 12.9 0.00 0.00 0.00 53 1011.0
20260507192518 13 304 3.2 11.3 0.00 0.00 0.00 55 1011.1
20260507192018 13 308 3.2 8.0 0.00 0.00 0.00 55 1011.0
20260507191518 13 282 3.2 8.0 0.00 0.00 0.00 55 1011.0
20260507191018 13 244 4.8 11.3 0.00 0.00 0.00 53 1011.1
20260507190518 13 313 3.2 14.5 0.00 0.00 0.00 55 1011.1
20260507190018 13 320 3.2 11.3 0.00 0.00 0.00 55 1011.1
20260507185518 13 308 4.8 12.9 0.00 0.00 0.00 55 1011.2
20260507185018 13 295 3.2 8.0 0.00 0.00 0.00 54 1011.2
20260507184519 13 307 4.8 11.3 0.00 0.00 0.00 55 1011.2
20260507184018 13 270 3.2 8.0 0.00 0.00 0.00 57 1011.2
20260507183519 13 289 3.2 6.4 0.00 0.00 0.00 56 1011.2
20260507183018 13 320 3.2 8.0 0.00 0.00 0.00 55 1011.2
20260507182518 13 273 3.2 11.3 0.00 0.00 0.00 55 1011.3
20260507182019 13 316 3.2 8.0 0.00 0.00 0.00 57 1011.3
20260507181519 13 318 3.2 8.0 0.00 0.00 0.00 55 1011.3
20260507181019 13 258 3.2 8.0 0.00 0.00 0.00 55 1011.3
20260507180519 13 323 3.2 9.7 0.00 0.00 0.00 55 1011.3
20260507180019 13 335 4.8 12.9 0.00 0.00 0.00 54 1011.2
20260507175519 13 288 4.8 11.3 0.00 0.00 0.00 53 1011.2
20260507175019 14 307 3.2 8.0 0.00 0.00 0.00 52 1011.2
20260507174519 14 316 4.8 12.9 0.00 0.00 0.00 53 1011.3
20260507174020 14 266 4.8 11.3 0.00 0.00 0.00 53 1011.3
20260507173519 14 319 4.8 12.9 0.00 0.00 0.00 50 1011.4
20260507173019 14 278 3.2 9.7 0.00 0.00 0.00 50 1011.4
20260507172519 14 297 4.8 9.7 0.00 0.00 0.00 50 1011.5
20260507172020 14 290 4.8 11.3 0.00 0.00 0.00 50 1011.5
20260507171520 14 290 4.8 14.5 0.00 0.00 0.00 49 1011.5
20260507171020 14 317 4.8 11.3 0.00 0.00 0.00 49 1011.5
20260507170520 14 298 4.8 9.7 0.00 0.00 0.00 49 1011.5
20260507170024 14 292 4.8 14.5 0.00 0.00 0.00 49 1011.5
20260507165520 14 322 1.6 8.0 0.00 0.00 0.00 50 1011.5
20260507165021 13 298 3.2 11.3 0.00 0.00 0.00 52 1011.6
20260507164520 13 323 3.2 6.4 0.00 0.00 0.00 50 1011.5
20260507164020 13 335 4.8 9.7 0.00 0.00 0.00 48 1011.6
20260507163520 13 295 4.8 9.7 0.00 0.00 0.00 50 1011.6
20260507163020 12 248 4.8 11.3 0.00 0.00 0.00 51 1011.6
20260507162521 12 219 6.4 12.9 0.00 0.00 0.00 52 1011.7
20260507162021 12 289 4.8 11.3 0.00 0.00 0.00 53 1011.7
20260507161521 12 259 6.4 16.1 0.00 0.00 0.00 52 1011.8
20260507161021 12 298 3.2 4.8 0.00 0.00 0.00 53 1011.8
20260507160521 12 307 3.2 6.4 0.00 0.00 0.00 53 1011.7
20260507160021 12 356 1.6 6.4 0.00 0.00 0.00 55 1011.8
20260507155521 12 270 3.2 8.0 0.00 0.00 0.00 56 1011.9
20260507155021 11 273 3.2 6.4 0.00 0.00 0.00 56 1011.9
20260507154521 11 350 3.2 8.0 0.00 0.00 0.00 57 1011.8
20260507154022 12 52 3.2 6.4 0.00 0.00 0.00 58 1011.8
20260507153522 12 280 3.2 8.0 0.00 0.00 0.00 57 1011.8
20260507153022 12 282 4.8 8.0 0.00 0.00 0.00 58 1011.7
20260507152522 12 332 3.2 6.4 0.00 0.00 0.00 58 1011.8
20260507152022 12 339 3.2 4.8 0.00 0.00 0.00 60 1011.9
20260507151522 12 293 1.6 4.8 0.00 0.00 0.00 61 1011.9
20260507151022 12 41 1.6 6.4 0.00 0.00 0.00 61 1011.9
20260507150522 12 310 4.8 6.4 0.00 0.00 0.00 60 1011.9
20260507150022 12 272 3.2 8.0 0.00 0.00 0.00 57 1011.8
20260507145522 12 269 3.2 4.8 0.00 0.00 0.00 60 1011.8
20260507145023 12 16 3.2 4.8 0.00 0.00 0.00 57 1011.8
20260507144522 12 257 3.2 4.8 0.00 0.00 0.00 55 1011.8
20260507144022 12 323 3.2 6.4 0.00 0.00 0.00 57 1011.8
20260507143523 12 257 4.8 8.0 0.00 0.00 0.00 57 1011.8
20260507143017 12 321 4.8 11.3 0.00 0.00 0.00 58 1011.8
20260507142517 12 254 4.8 9.7 0.00 0.00 0.00 59 1011.8
20260507142023 12 275 3.2 4.8 0.00 0.00 0.00 58 1011.9
20260507141523 12 294 3.2 4.8 0.00 0.00 0.00 61 1012.0
20260507141023 11 323 1.6 4.8 0.00 0.00 0.00 63 1012.0
20260507140517 11 282 3.2 9.7 0.00 0.00 0.00 63 1012.1
20260507140023 11 344 3.2 6.4 0.00 0.00 0.00 64 1012.2
20260507135523 11 295 1.6 4.8 0.00 0.00 0.00 66 1012.2
20260507135023 11 35 1.6 3.2 0.00 0.00 0.00 68 1012.3
20260507134523 11 273 3.2 6.4 0.00 0.00 0.00 68 1012.4
20260507134023 11 282 1.6 4.8 0.00 0.00 0.00 68 1012.4
20260507133524 11 277 3.2 6.4 0.00 0.00 0.00 70 1012.4
20260507133024 10 323 3.2 6.4 0.00 0.00 0.00 71 1012.5
20260507132524 10 262 3.2 4.8 0.00 0.00 0.00 71 1012.6
20260507132024 10 284 3.2 8.0 0.00 0.00 0.00 72 1012.6
20260507131524 10 228 3.2 4.8 0.00 0.00 0.00 72 1012.6
20260507131024 10 280 3.2 4.8 0.00 0.00 0.00 72 1012.6
20260507130524 9 279 4.8 6.4 0.00 0.00 0.00 72 1012.7
20260507130019 9 251 3.2 8.0 0.00 0.00 0.00 72 1012.7
20260507125525 9 255 1.6 4.8 0.00 0.00 0.00 73 1012.7
20260507125025 8 278 3.2 4.8 0.00 0.00 0.00 73 1012.7
20260507124525 8 287 3.2 4.8 0.00 0.00 0.00 73 1012.7
20260507124025 8 272 4.8 6.4 0.00 0.00 0.00 73 1012.7
20260507123525 8 255 1.6 4.8 0.00 0.00 0.00 75 1012.8
20260507123025 8 252 1.6 3.2 0.00 0.00 0.00 75 1012.8
20260507122525 8 215 1.6 3.2 0.00 0.00 0.00 75 1012.8
20260507122025 7 235 3.2 6.4 0.00 0.00 0.00 76 1012.8
20260507121525 7 227 3.2 8.0 0.00 0.00 0.00 76 1012.8
20260507121026 7 215 3.2 8.0 0.00 0.00 0.00 77 1012.7
20260507120526 7 266 3.2 4.8 0.00 0.00 0.00 78 1012.7
20260507120026 7 246 3.2 6.4 0.00 0.00 0.00 79 1012.8
20260507115526 7 237 3.2 4.8 0.00 0.00 0.00 80 1012.7
20260507115026 7 255 3.2 8.0 0.00 0.00 0.00 81 1012.8
20260507114525 7 206 3.2 6.4 0.00 0.00 0.00 81 1012.8
20260507114026 6 225 3.2 6.4 0.00 0.00 0.00 82 1012.8
20260507113526 6 238 3.2 4.8 0.00 0.00 0.00 83 1012.8
20260507113026 6 228 3.2 4.8 0.00 0.00 0.00 84 1012.9
20260507112526 6 252 4.8 6.4 0.00 0.00 0.00 86 1012.7
20260507112027 5 224 1.6 4.8 0.00 0.00 0.00 88 1012.7
20260507111526 5 222 1.6 3.2 0.00 0.00 0.00 89 1012.7
20260507111026 5 247 1.6 3.2 0.00 0.00 0.00 89 1012.7
20260507110527 5 221 0.0 1.6 0.00 0.00 0.00 90 1012.6
20260507110026 5 230 0.0 1.6 0.00 0.00 0.00 90 1012.5
20260507105527 5 241 0.0 3.2 0.00 0.00 0.00 90 1012.5
20260507105027 5 0.0 0.0 0.00 0.00 0.00 90 1012.4
20260507104527 5 0.0 0.0 0.00 0.00 0.00 90 1012.4
20260507104027 5 0.0 0.0 0.00 0.00 0.00 90 1012.4
20260507103527 5 0.0 0.0 0.00 0.00 0.00 90 1012.3
20260507103028 4 0.0 0.0 0.00 0.00 0.00 90 1012.4
20260507102527 4 0.0 0.0 0.00 0.00 0.00 90 1012.4
20260507102027 4 227 0.0 1.6 0.00 0.00 0.00 89 1012.4
20260507101528 4 0.0 0.0 0.00 0.00 0.00 89 1012.3
20260507101027 4 0.0 0.0 0.00 0.00 0.00 89 1012.3
20260507100528 5 0.0 0.0 0.00 0.00 0.00 88 1012.4
20260507100027 5 0.0 0.0 0.00 0.00 0.00 88 1012.4
20260507095528 5 0.0 0.0 0.00 0.00 0.00 88 1012.3
20260507095028 5 0.0 0.0 0.00 0.00 0.00 88 1012.3
20260507094528 5 0.0 0.0 0.00 0.00 0.00 88 1012.2
20260507094028 5 0.0 0.0 0.00 0.00 0.00 87 1012.3
20260507093528 5 193 0.0 1.6 0.00 0.00 0.00 87 1012.3
20260507093029 5 225 0.0 1.6 0.00 0.00 0.00 87 1012.3
20260507092528 5 0.0 0.0 0.00 0.00 0.00 87 1012.3
20260507092028 5 233 0.0 1.6 0.00 0.00 0.00 86 1012.3
20260507091528 5 0.0 0.0 0.00 0.03 0.00 86 1012.3
20260507091030 5 0.0 0.0 0.00 0.03 0.00 85 1012.3
20260507090528 5 0.0 0.0 0.00 0.03 0.00 85 1012.3
20260507090028 5 0.0 0.0 0.00 0.03 0.00 85 1012.4
20260507085529 6 238 0.0 1.6 0.00 0.03 0.00 85 1012.4
20260507085029 6 227 0.0 1.6 0.00 0.03 0.00 85 1012.4
20260507084530 6 233 1.6 3.2 0.00 0.03 0.00 86 1012.4
20260507084029 6 233 1.6 3.2 0.00 0.03 0.00 86 1012.4
20260507083529 6 247 0.0 1.6 0.00 0.03 0.00 86 1012.4
20260507083029 5 232 0.0 1.6 0.00 0.03 0.00 87 1012.5
20260507082530 5 234 0.0 1.6 0.00 0.03 0.00 87 1012.5
20260507082029 5 211 1.6 3.2 0.00 0.03 0.00 87 1012.5
20260507081530 5 234 0.0 1.6 0.00 0.05 0.00 87 1012.5
20260507081030 5 262 0.0 1.6 0.00 0.05 0.00 87 1012.5
20260507080530 5 242 0.0 3.2 0.00 0.08 0.00 87 1012.4
20260507080030 5 0.0 0.0 0.00 0.10 0.00 87 1012.4
20260507075530 5 0.0 0.0 0.00 0.10 0.00 87 1012.4